TimePST,TemperatureF,Dew PointF,Humidity,Sea Level PressureIn,VisibilityMPH,Wind Direction,Wind SpeedMPH,Gust SpeedMPH,PrecipitationIn,Events,Conditions,WindDirDegrees,DateUTC
12:15 AM,46.4,46.4,100,30.45,0.8,WNW,4.6,-,N/A,,Overcast,290,2013-02-12 08:15:00
12:35 AM,46.4,46.4,100,30.46,1.2,WNW,3.5,-,N/A,,Drizzle,290,2013-02-12 08:35:00
12:55 AM,46.4,46.4,100,30.46,2.5,West,5.8,-,N/A,,Light Drizzle,280,2013-02-12 08:55:00
1:15 AM,46.4,46.4,100,30.46,2.5,WNW,4.6,-,N/A,Rain,Light Rain,300,2013-02-12 09:15:00
1:35 AM,46.4,46.4,100,30.46,2.0,Calm,Calm,-,0.01,,Light Drizzle,0,2013-02-12 09:35:00
1:55 AM,46.4,46.4,100,30.46,1.8,Calm,Calm,-,0.01,,Overcast,0,2013-02-12 09:55:00
2:15 AM,46.4,46.4,100,30.47,1.0,West,4.6,-,N/A,Rain,Light Rain,260,2013-02-12 10:15:00
2:35 AM,46.4,46.4,100,30.47,0.8,WSW,3.5,-,0.01,Rain,Heavy Rain,250,2013-02-12 10:35:00
2:55 AM,46.4,46.4,100,30.46,1.2,Calm,Calm,-,0.02,,Drizzle,0,2013-02-12 10:55:00
3:15 AM,46.4,46.4,100,30.46,1.2,WSW,3.5,-,N/A,,Overcast,240,2013-02-12 11:15:00
3:35 AM,46.4,46.4,100,30.46,1.5,WSW,4.6,-,0.01,,Light Drizzle,240,2013-02-12 11:35:00
3:55 AM,46.4,46.4,100,30.46,1.0,West,5.8,-,0.01,,Overcast,260,2013-02-12 11:55:00
4:15 AM,46.4,46.4,100,30.46,1.0,WSW,4.6,-,N/A,Rain,Rain,250,2013-02-12 12:15:00
4:35 AM,46.4,46.4,100,30.45,0.8,SW,3.5,-,N/A,,Light Drizzle,230,2013-02-12 12:35:00
4:55 AM,46.4,46.4,100,30.45,1.0,WSW,5.8,-,0.01,Rain,Rain,240,2013-02-12 12:55:00
5:15 AM,46.4,46.4,100,30.45,1.5,SW,5.8,-,N/A,,Overcast,230,2013-02-12 13:15:00
5:35 AM,46.4,46.4,100,30.45,1.0,WSW,5.8,-,N/A,,Overcast,240,2013-02-12 13:35:00
5:55 AM,46.4,46.4,100,30.46,0.8,WSW,5.8,-,N/A,,Overcast,240,2013-02-12 13:55:00
6:15 AM,46.4,46.4,100,30.46,1.5,West,5.8,-,N/A,,Overcast,260,2013-02-12 14:15:00
6:35 AM,46.4,46.4,100,30.47,4.0,West,5.8,-,N/A,,Overcast,260,2013-02-12 14:35:00
6:55 AM,46.4,46.4,100,30.47,3.0,West,4.6,-,N/A,,Overcast,280,2013-02-12 14:55:00
7:15 AM,46.4,46.4,100,30.47,3.0,West,3.5,-,N/A,,Overcast,280,2013-02-12 15:15:00
7:35 AM,46.4,46.4,100,30.48,0.5,West,6.9,-,N/A,,Drizzle,280,2013-02-12 15:35:00
7:55 AM,46.4,46.4,100,30.49,1.2,WNW,3.5,-,0.01,,Drizzle,290,2013-02-12 15:55:00
8:15 AM,46.4,46.4,100,30.49,1.0,WNW,4.6,-,N/A,,Light Drizzle,300,2013-02-12 16:15:00
8:35 AM,46.4,46.4,100,30.50,2.5,WNW,6.9,-,N/A,,Overcast,300,2013-02-12 16:35:00
8:55 AM,46.4,46.4,100,30.51,4.0,WNW,4.6,-,N/A,,Overcast,300,2013-02-12 16:55:00
9:15 AM,46.4,46.4,100,30.52,2.5,WNW,6.9,-,N/A,,Overcast,290,2013-02-12 17:15:00
9:35 AM,46.4,46.4,100,30.52,2.0,WNW,6.9,-,N/A,,Overcast,290,2013-02-12 17:35:00
9:55 AM,46.4,46.4,100,30.53,5.0,NW,4.6,-,N/A,,Overcast,310,2013-02-12 17:55:00
10:15 AM,46.4,46.4,100,30.53,5.0,NW,3.5,-,N/A,,Overcast,310,2013-02-12 18:15:00
10:35 AM,48.2,46.4,93,30.54,5.0,WNW,4.6,-,N/A,,Overcast,290,2013-02-12 18:35:00
10:55 AM,48.2,46.4,93,30.54,7.0,Calm,Calm,-,N/A,,Overcast,0,2013-02-12 18:55:00
11:15 AM,48.2,48.2,100,30.55,5.0,WNW,5.8,-,N/A,,Overcast,290,2013-02-12 19:15:00
11:35 AM,48.2,48.2,100,30.55,1.5,West,3.5,-,N/A,,Overcast,280,2013-02-12 19:35:00
11:55 AM,48.2,46.4,93,30.54,2.5,WSW,5.8,-,N/A,,Overcast,240,2013-02-12 19:55:00
12:15 PM,48.2,46.4,93,30.54,1.2,West,5.8,-,N/A,,Overcast,260,2013-02-12 20:15:00
12:35 PM,46.4,46.4,100,30.53,1.5,West,3.5,-,N/A,,Overcast,270,2013-02-12 20:35:00
12:55 PM,46.4,46.4,100,30.53,2.0,West,3.5,-,N/A,,Overcast,270,2013-02-12 20:55:00
1:15 PM,46.4,46.4,100,30.53,1.2,WSW,3.5,-,N/A,,Overcast,250,2013-02-12 21:15:00
1:35 PM,46.4,46.4,100,30.53,1.5,WSW,3.5,-,N/A,,Overcast,250,2013-02-12 21:35:00
1:55 PM,48.2,46.4,93,30.52,1.5,SW,4.6,-,N/A,,Overcast,230,2013-02-12 21:55:00
2:15 PM,46.4,46.4,100,30.52,1.5,SW,5.8,-,0.01,,Light Drizzle,220,2013-02-12 22:15:00
2:35 PM,46.4,46.4,100,30.52,3.0,SW,4.6,-,0.01,,Overcast,230,2013-02-12 22:35:00
2:55 PM,46.4,46.4,100,30.52,5.0,SW,4.6,-,0.01,,Overcast,220,2013-02-12 22:55:00
3:15 PM,48.2,46.4,93,30.51,1.8,SSW,4.6,-,N/A,,Overcast,200,2013-02-12 23:15:00
3:35 PM,48.2,48.2,100,30.51,4.0,SW,5.8,-,N/A,,Overcast,230,2013-02-12 23:35:00
3:55 PM,48.2,46.4,93,30.51,4.0,SSW,5.8,-,N/A,,Overcast,210,2013-02-12 23:55:00
4:15 PM,48.2,46.4,93,30.52,4.0,SW,5.8,-,N/A,,Overcast,230,2013-02-13 00:15:00
4:35 PM,46.4,46.4,100,30.52,1.0,SSW,6.9,-,N/A,,Overcast,210,2013-02-13 00:35:00
4:55 PM,46.4,46.4,100,30.52,0.8,SW,6.9,-,N/A,,Overcast,220,2013-02-13 00:55:00
5:15 PM,46.4,46.4,100,30.52,0.5,SW,5.8,-,N/A,Rain,Rain,230,2013-02-13 01:15:00
5:35 PM,46.4,46.4,100,30.52,0.5,West,6.9,-,N/A,,Drizzle,260,2013-02-13 01:35:00
6:15 PM,46.4,46.4,100,30.52,1.5,SW,4.6,-,N/A,,Overcast,230,2013-02-13 02:15:00
6:35 PM,46.4,46.4,100,30.52,2.5,SW,4.6,-,N/A,,Overcast,230,2013-02-13 02:35:00
6:55 PM,46.4,46.4,100,30.52,5.0,SW,5.8,-,N/A,,Overcast,230,2013-02-13 02:55:00
7:15 PM,46.4,46.4,100,30.53,7.0,West,6.9,-,N/A,,Overcast,260,2013-02-13 03:15:00
7:35 PM,46.4,46.4,100,30.53,7.0,West,5.8,-,N/A,,Overcast,260,2013-02-13 03:35:00
7:55 PM,46.4,44.6,93,30.53,7.0,West,6.9,-,N/A,,Overcast,270,2013-02-13 03:55:00
8:15 PM,46.4,44.6,93,30.52,7.0,SW,4.6,-,N/A,,Overcast,220,2013-02-13 04:15:00
8:35 PM,46.4,44.6,93,30.52,5.0,SW,3.5,-,N/A,,Overcast,230,2013-02-13 04:35:00
8:55 PM,46.4,44.6,93,30.52,5.0,SW,4.6,-,N/A,,Overcast,230,2013-02-13 04:55:00
9:15 PM,46.4,44.6,93,30.52,4.0,SW,4.6,-,N/A,,Overcast,220,2013-02-13 05:15:00
9:35 PM,46.4,44.6,93,30.52,5.0,SW,5.8,-,N/A,,Overcast,220,2013-02-13 05:35:00
9:55 PM,46.4,44.6,93,30.52,5.0,SW,6.9,-,N/A,,Overcast,230,2013-02-13 05:55:00
10:15 PM,46.4,44.6,93,30.52,5.0,SSW,6.9,-,N/A,,Overcast,200,2013-02-13 06:15:00
10:35 PM,46.4,44.6,93,30.52,5.0,SW,8.1,-,N/A,,Overcast,220,2013-02-13 06:35:00
10:55 PM,46.4,44.6,93,30.52,5.0,SSW,9.2,-,N/A,,Overcast,210,2013-02-13 06:55:00
11:15 PM,46.4,46.4,100,30.52,4.0,SW,6.9,-,N/A,,Overcast,230,2013-02-13 07:15:00
11:35 PM,46.4,46.4,100,30.53,4.0,SW,6.9,-,N/A,,Overcast,230,2013-02-13 07:35:00
11:55 PM,46.4,46.4,100,30.52,1.8,WSW,6.9,-,N/A,,Overcast,240,2013-02-13 07:55:00